Weather in Malmyzh

Russia / Khabarovsk Krai     49°51′09″N   136°45′52″E
temp.,
°C
wind,
m/s
gust,
m/s
humid.,
%
clouds,
%
prec.,
mm/h
press.,
hPa
HPBL,
m
19 june, sat
sat1901:00+13nne3481100 0.0 100359
04:00+12ne3485100 0.0 100573
07:00+12nne5787100 0.0 1006135
10:00+15nne71076100 0.0 1007261
13:00+18nne6969100 0.0 1005327
16:00+20nne71166100 0.0 1004306
19:00+18nne5874100 0.0 1004152
22:00+15ne4484100 0.0 100550
20 june, sun
sun2001:00+14nne5768100 0.0 1006109
04:00+12nne4769100 0.0 100792
07:00+11nne4772100 0.0 1007107
10:00+15ne5660100 0.0 1008310
13:00+18nne5649100 0.0 1007542
16:00+20n4551100 0.0 1005455
19:00+19n476590 0.0 100592
22:00+15e3468100 0.0 100630
21 june, mon
mon2101:00+12e22635 0.0 100712
04:00+11ne22670 0.0 100811
07:00+12e22725 0.0 100951
10:00+15e116424 0.0 1009204
13:00+19nnw0255100 0.0 1008544
16:00+20wnw22539 0.0 1006510
19:00+20nw33725 0.0 100660
22:00+15w226884 0.0 100611
22 june, tue
tue2201:00+14sw227389 0.0 100714
04:00+12ssw338346 0.0 100729
07:00+13ssw478844 0.0 1008137
10:00+16sw577990 0.0 1008312
13:00+19sw686856 0.0 1007544
16:00+21sw587167 0.0 1006683
19:00+19ssw597952 0.0 1005178
22:00+16sw4590100 0.3 100773
23 june, wed
wed2301:00+14ssw479399 0.3 100796
04:00+13ssw369399 0.3 100788
07:00+14ssw479495 0.0 1007182
10:00+17sw4785100 0.1 1007409
13:00+19sw347843 0.2 1006707
16:00+19ene2181100 2.4 1006381
19:00+19ne238577 1.8 100791
22:00+17n358512 1.9 100893